Starlink 11683

operational
NORAD ID: 64239 Int'l Des: 2025-119 Owner: SPXS Country: US Constellation: starlink
LEOCIRCULAR

Über Starlink 11683

Beschreibung wird geladen...

Live-Position

3D-Globus wird geladen...

Nächste Überflüge

Höhenverlauf

Altitude vs Time

uPlot chart will show altitude changes over time

Zweizeiliger Elementsatz

1 64239U 25119G 25353.41878702 .00213048 00000-0 16200-2 0 9996
2 64239 42.9997 332.6501 0000837 321.7941 38.2867 15.70863633 32620
Epoch: 19. Dez. 2025 • Age: 18 hours

Aktueller Status

Höhe 354.3 km
Geschwindigkeit 7.70 km/s
Subsatellitenpunkt 6.96°N, 179.55°W
Startdatum 3. Juni 2025
Alter 0.5 years
Typ internet

Technische Details

Klassifizierung Payload
Masse 960.00 kg
Trockenmasse 910.00 kg
Gesamtmasse 960.00 kg
Länge 0.30 m
Durchmesser 4.10 m
Spannweite 29.00 m
Form Box + pan
Hersteller SPXS
Bus-Typ Starlink V2MD
Phasenstatus In Orbit
Besitzer/Staat SPXS/US

Große Konstellationen

Loading constellations...